• In Hungary
  • List of Countries
  • For 7 days
  • Water Temperature
  • Satellite Maps
  • Weather Map
  • News
  • Weather Widgets
  • user-avatar
    Login

    Hourly Weather Otmianowo

    Today, 12 December, Tuesday

    Time Temperature Precipitation Wind Pressure Humidity
    00:00 +5°C° 0 mm 6 mps 731 mmHg 86%
    01:00 +7°C° 0 mm 6 mps 731 mmHg 86%
    02:00 +7°C° 0 mm 6 mps 731 mmHg 85%
    03:00 +7°C° 0 mm 6 mps 732 mmHg 84%
    04:00 +8°C° 0 mm 7 mps 732 mmHg 83%
    05:00 +7°C° 0 mm 6 mps 733 mmHg 84%
    06:00 +7°C° 0 mm 6 mps 733 mmHg 84%
    07:00 +7°C° 0 mm 4 mps 734 mmHg 90%
    08:00 +7°C° 0 mm 4 mps 734 mmHg 88%
    09:00 +7°C° 0 mm 5 mps 735 mmHg 86%
    10:00 +7°C° 0 mm 5 mps 736 mmHg 83%
    11:00 +7°C° 0 mm 6 mps 737 mmHg 76%
    12:00 +6°C° 0 mm 8 mps 737 mmHg 68%
    13:00 +8°C° 0 mm 6 mps 738 mmHg 62%
    14:00 +6°C° 0 mm 7 mps 739 mmHg 61%
    15:00 +5°C° 0 mm 8 mps 740 mmHg 60%
    16:00 +3°C° 0 mm 9 mps 741 mmHg 60%
    17:00 +2°C° 0 mm 9 mps 742 mmHg 61%
    18:00 +1°C° 0 mm 9 mps 743 mmHg 62%
    19:00 +1°C° 0 mm 8 mps 744 mmHg 64%
    20:00 0°C° 0 mm 8 mps 744 mmHg 65%
    21:00 0°C° 0 mm 8 mps 745 mmHg 66%
    22:00 0°C° 0 mm 8 mps 746 mmHg 67%
    23:00 0°C° 0 mm 7 mps 746 mmHg 70%

    Tomorrow, 13 December, Wednesday

    Time Temperature Precipitation Wind Pressure Humidity
    00:00 -1°C° 0 mm 7 mps 747 mmHg 73%
    01:00 -1°C° 0 mm 6 mps 748 mmHg 77%
    02:00 -1°C° 0 mm 6 mps 748 mmHg 79%
    03:00 -1°C° 0 mm 5 mps 748 mmHg 81%
    04:00 -1°C° 0 mm 4 mps 749 mmHg 84%
    05:00 -2°C° 0 mm 4 mps 749 mmHg 86%
    06:00 -2°C° 0 mm 4 mps 750 mmHg 89%
    07:00 -1°C° 0 mm 3 mps 750 mmHg 91%
    08:00 -1°C° 0 mm 3 mps 750 mmHg 89%
    09:00 -2°C° 0 mm 4 mps 750 mmHg 87%
    10:00 -1°C° 0 mm 4 mps 751 mmHg 85%
    11:00 -1°C° 0 mm 4 mps 750 mmHg 82%
    12:00 0°C° 0 mm 4 mps 750 mmHg 79%
    13:00 0°C° 0 mm 4 mps 749 mmHg 75%
    14:00 0°C° 0 mm 4 mps 749 mmHg 77%
    15:00 -1°C° 0 mm 4 mps 748 mmHg 79%
    16:00 -1°C° 0 mm 3 mps 748 mmHg 81%
    17:00 -2°C° 0 mm 4 mps 747 mmHg 79%
    18:00 -1°C° 0 mm 5 mps 747 mmHg 78%
    19:00 -1°C° 0 mm 5 mps 746 mmHg 76%
    20:00 -2°C° 0 mm 6 mps 745 mmHg 74%
    21:00 -3°C° 0 mm 6 mps 744 mmHg 73%
    22:00 -3°C° 0 mm 6 mps 743 mmHg 71%
    23:00 -2°C° 0 mm 6 mps 742 mmHg 69%

    Day after tomorrow, 14 December, Thursday

    Time Temperature Precipitation Wind Pressure Humidity
    00:00 -2°C° 0 mm 7 mps 741 mmHg 66%
    01:00 -2°C° 0 mm 7 mps 740 mmHg 64%
    02:00 -2°C° 0.1 mm 7 mps 738 mmHg 63%
    03:00 -1°C° 0.1 mm 8 mps 737 mmHg 62%
    04:00 -1°C° 0.1 mm 8 mps 736 mmHg 61%
    05:00 -1°C° 0.4 mm 8 mps 735 mmHg 63%
    06:00 0°C° 0.4 mm 8 mps 734 mmHg 65%
    07:00 0°C° 0.4 mm 8 mps 733 mmHg 67%
    08:00 0°C° 0.6 mm 8 mps 733 mmHg 70%
    09:00 +1°C° 0.6 mm 8 mps 733 mmHg 73%
    10:00 +1°C° 0.6 mm 8 mps 733 mmHg 76%
    11:00 +2°C° 0.3 mm 7 mps 733 mmHg 76%
    12:00 +2°C° 0.3 mm 7 mps 734 mmHg 76%
    13:00 +2°C° 0.3 mm 6 mps 734 mmHg 76%
    14:00 +1°C° 0.5 mm 6 mps 735 mmHg 78%
    15:00 0°C° 0.5 mm 7 mps 735 mmHg 80%
    16:00 0°C° 0.5 mm 7 mps 736 mmHg 81%
    17:00 -1°C° 0 mm 7 mps 736 mmHg 79%
    18:00 -1°C° 0 mm 7 mps 736 mmHg 76%
    19:00 -1°C° 0 mm 6 mps 737 mmHg 74%
    20:00 -2°C° 0 mm 6 mps 737 mmHg 74%
    21:00 -2°C° 0 mm 6 mps 737 mmHg 74%
    22:00 -2°C° 0 mm 6 mps 737 mmHg 74%
    23:00 -2°C° 0 mm 6 mps 736 mmHg 73%

    15 December, Friday

    Time Temperature Precipitation Wind Pressure Humidity
    00:00 -2°C° 0 mm 6 mps 736 mmHg 72%
    01:00 -2°C° 0 mm 7 mps 736 mmHg 71%
    02:00 -2°C° 0 mm 6 mps 735 mmHg 72%
    03:00 -2°C° 0 mm 6 mps 734 mmHg 74%
    04:00 -1°C° 0 mm 5 mps 733 mmHg 75%
    05:00 -1°C° 0.2 mm 6 mps 732 mmHg 76%
    06:00 -1°C° 0.2 mm 6 mps 732 mmHg 76%
    07:00 0°C° 0.2 mm 7 mps 731 mmHg 77%
    08:00 0°C° 0.5 mm 7 mps 731 mmHg 75%
    09:00 +1°C° 0.5 mm 8 mps 730 mmHg 73%
    10:00 +1°C° 0.5 mm 8 mps 730 mmHg 71%
    11:00 +1°C° 0.1 mm 9 mps 731 mmHg 74%
    12:00 0°C° 0.1 mm 10 mps 731 mmHg 76%
    13:00 0°C° 0.1 mm 10 mps 732 mmHg 78%
    14:00 0°C° 0.1 mm 9 mps 733 mmHg 79%
    15:00 0°C° 0.1 mm 8 mps 734 mmHg 80%
    16:00 -1°C° 0.1 mm 6 mps 735 mmHg 81%
    17:00 -1°C° 0 mm 6 mps 735 mmHg 81%
    18:00 -1°C° 0 mm 6 mps 736 mmHg 81%
    19:00 -1°C° 0 mm 6 mps 736 mmHg 81%
    20:00 -1°C° 0 mm 6 mps 737 mmHg 82%
    21:00 -1°C° 0 mm 5 mps 737 mmHg 82%
    22:00 -1°C° 0 mm 5 mps 737 mmHg 82%
    23:00 -2°C° 0 mm 5 mps 738 mmHg 83%

    16 December, Saturday

    Time Temperature Precipitation Wind Pressure Humidity
    00:00 -2°C° 0 mm 4 mps 738 mmHg 84%
    01:00 -2°C° 0 mm 3 mps 738 mmHg 85%
    02:00 -2°C° 0 mm 3 mps 738 mmHg 86%
    03:00 -2°C° 0 mm 3 mps 738 mmHg 87%
    04:00 -2°C° 0 mm 3 mps 738 mmHg 87%
    05:00 -3°C° 0 mm 4 mps 738 mmHg 88%
    06:00 -2°C° 0 mm 4 mps 739 mmHg 88%
    07:00 -2°C° 0 mm 4 mps 739 mmHg 88%
    08:00 -2°C° 0.1 mm 4 mps 739 mmHg 87%
    09:00 -1°C° 0.1 mm 5 mps 740 mmHg 86%
    10:00 -1°C° 0.1 mm 5 mps 740 mmHg 85%
    11:00 0°C° 0 mm 5 mps 740 mmHg 83%
    12:00 0°C° 0 mm 5 mps 741 mmHg 82%
    13:00 -1°C° 0 mm 6 mps 741 mmHg 80%
    14:00 -1°C° 0.2 mm 6 mps 741 mmHg 82%
    15:00 -1°C° 0.2 mm 6 mps 741 mmHg 83%
    16:00 -1°C° 0.2 mm 6 mps 742 mmHg 84%
    17:00 -1°C° 0.1 mm 6 mps 742 mmHg 83%
    18:00 -1°C° 0.1 mm 6 mps 743 mmHg 83%
    19:00 -1°C° 0.1 mm 6 mps 743 mmHg 82%
    20:00 -2°C° 0 mm 6 mps 744 mmHg 84%
    21:00 -2°C° 0 mm 6 mps 744 mmHg 85%
    22:00 -2°C° 0 mm 6 mps 744 mmHg 87%
    23:00 -2°C° 0 mm 6 mps 745 mmHg 87%

    17 December, Sunday

    Time Temperature Precipitation Wind Pressure Humidity
    00:00 -3°C° 0 mm 6 mps 745 mmHg 88%
    01:00 -3°C° 0 mm 6 mps 746 mmHg 89%
    02:00 -2°C° 0 mm 5 mps 746 mmHg 88%
    03:00 -1°C° 0 mm 5 mps 746 mmHg 88%
    04:00 -1°C° 0 mm 5 mps 747 mmHg 87%
    05:00 -1°C° 0 mm 5 mps 747 mmHg 87%
    06:00 -1°C° 0 mm 5 mps 748 mmHg 87%
    07:00 -1°C° 0 mm 4 mps 748 mmHg 87%
    08:00 -1°C° 0 mm 5 mps 749 mmHg 86%
    09:00 -1°C° 0 mm 5 mps 749 mmHg 85%
    10:00 -1°C° 0 mm 5 mps 750 mmHg 84%
    11:00 -1°C° 0.1 mm 5 mps 750 mmHg 83%
    12:00 -1°C° 0.1 mm 5 mps 751 mmHg 82%
    13:00 -1°C° 0.1 mm 5 mps 751 mmHg 82%
    14:00 -1°C° 0.1 mm 4 mps 751 mmHg 83%
    15:00 -1°C° 0.1 mm 4 mps 752 mmHg 84%
    16:00 -1°C° 0.1 mm 4 mps 752 mmHg 86%
    17:00 -1°C° 0 mm 4 mps 753 mmHg 86%
    18:00 -2°C° 0 mm 4 mps 754 mmHg 87%
    19:00 -1°C° 0 mm 3 mps 754 mmHg 88%
    20:00 -1°C° 0 mm 3 mps 755 mmHg 89%
    21:00 -1°C° 0 mm 3 mps 755 mmHg 89%
    22:00 -1°C° 0 mm 3 mps 755 mmHg 89%
    23:00 -2°C° 0 mm 3 mps 756 mmHg 91%
    Show more